Time,TemperatureF,DewpointF,PressureIn,WindDirection,WindDirectionDegrees,WindSpeedMPH,WindSpeedGustMPH,Humidity,HourlyPrecipIn,Conditions,Clouds,dailyrainin,SolarRadiationWatts/m^2,SoftwareType,DateUTC
2013-06-22 00:05:00,80.5,53.3,29.92,NNE,26,3.0,3.0,39,0.00,,,0.00,0,Wunderground v.1.15,2013-06-21 21:05:00,
2013-06-22 00:16:00,80.5,53.3,29.92,ENE,61,2.0,4.0,39,0.00,,,0.00,0,Wunderground v.1.15,2013-06-21 21:16:00,
2013-06-22 00:25:00,80.3,53.8,29.92,NNE,32,5.0,5.0,40,0.00,,,0.00,0,Wunderground v.1.15,2013-06-21 21:25:00,
2013-06-22 00:35:00,80.2,53.7,29.92,NE,42,4.0,4.0,40,0.00,,,0.00,0,Wunderground v.1.15,2013-06-21 21:35:00,
2013-06-22 00:55:00,80.0,53.5,29.92,NNE,30,3.0,3.0,40,0.00,,,0.00,0,Wunderground v.1.15,2013-06-21 21:55:00,
2013-06-22 01:05:00,79.9,54.1,29.92,NNE,30,1.0,1.0,41,0.00,,,0.00,0,Wunderground v.1.15,2013-06-21 22:05:00,
2013-06-22 01:15:00,79.7,53.9,29.92,NNE,30,1.0,3.0,41,0.00,,,0.00,0,Wunderground v.1.15,2013-06-21 22:15:00,
2013-06-22 01:25:00,79.5,53.7,29.91,NNE,30,1.0,1.0,41,0.00,,,0.00,0,Wunderground v.1.15,2013-06-21 22:25:00,
2013-06-22 01:35:00,79.4,53.6,29.92,NNE,30,1.0,1.0,41,0.00,,,0.00,0,Wunderground v.1.15,2013-06-21 22:35:00,
2013-06-22 01:46:00,79.2,54.1,29.92,NNE,30,0.0,0.0,42,0.00,,,0.00,0,Wunderground v.1.15,2013-06-21 22:46:00,
2013-06-22 01:55:00,78.9,54.5,29.91,NNE,30,0.0,0.0,43,0.00,,,0.00,0,Wunderground v.1.15,2013-06-21 22:55:00,
2013-06-22 02:05:00,78.7,55.0,29.91,NNE,30,0.0,0.0,44,0.00,,,0.00,0,Wunderground v.1.15,2013-06-21 23:05:00,
2013-06-22 02:15:00,78.4,54.7,29.91,NNE,30,0.0,0.0,44,0.00,,,0.00,0,Wunderground v.1.15,2013-06-21 23:15:00,
2013-06-22 02:25:00,78.2,55.1,29.91,NNE,30,0.0,0.0,45,0.00,,,0.00,0,Wunderground v.1.15,2013-06-21 23:25:00,
2013-06-22 02:35:00,78.0,54.9,29.91,NNE,30,0.0,1.0,45,0.00,,,0.00,0,Wunderground v.1.15,2013-06-21 23:35:00,
2013-06-22 02:46:00,78.1,54.4,29.90,NNE,30,1.0,1.0,44,0.00,,,0.00,0,Wunderground v.1.15,2013-06-21 23:46:00,
2013-06-22 02:55:00,78.1,55.0,29.90,NNE,30,1.0,1.0,45,0.00,,,0.00,0,Wunderground v.1.15,2013-06-21 23:55:00,
2013-06-22 03:05:00,78.0,54.3,29.89,NNE,30,1.0,1.0,44,0.00,,,0.00,0,Wunderground v.1.15,2013-06-22 00:05:00,
2013-06-22 03:15:00,78.0,54.3,29.89,NNE,30,1.0,1.0,44,0.00,,,0.00,0,Wunderground v.1.15,2013-06-22 00:15:00,
2013-06-22 03:25:00,78.2,53.9,29.89,NNE,30,2.0,2.0,43,0.00,,,0.00,0,Wunderground v.1.15,2013-06-22 00:25:00,
2013-06-22 03:35:00,78.3,54.0,29.88,NNE,30,2.0,2.0,43,0.00,,,0.00,0,Wunderground v.1.15,2013-06-22 00:35:00,
2013-06-22 03:45:00,78.2,53.9,29.88,NNE,30,2.0,2.0,43,0.00,,,0.00,0,Wunderground v.1.15,2013-06-22 00:45:00,
2013-06-22 03:55:00,78.1,53.8,29.88,NNE,30,2.0,2.0,43,0.00,,,0.00,0,Wunderground v.1.15,2013-06-22 00:55:00,
2013-06-22 04:05:00,77.8,54.1,29.88,NNE,30,1.0,3.0,44,0.00,,,0.00,0,Wunderground v.1.15,2013-06-22 01:05:00,
2013-06-22 04:16:00,77.6,54.6,29.88,NNE,30,2.0,2.0,45,0.00,,,0.00,0,Wunderground v.1.15,2013-06-22 01:16:00,
2013-06-22 04:25:00,77.3,54.3,29.88,NNE,30,2.0,4.0,45,0.00,,,0.00,0,Wunderground v.1.15,2013-06-22 01:25:00,
2013-06-22 04:35:00,77.2,54.8,29.88,NNE,30,2.0,3.0,46,0.00,,,0.00,0,Wunderground v.1.15,2013-06-22 01:35:00,
2013-06-22 04:45:00,77.1,55.3,29.88,NNE,30,1.0,2.0,47,0.00,,,0.00,0,Wunderground v.1.15,2013-06-22 01:45:00,
2013-06-22 04:55:00,77.1,55.3,29.88,NNE,16,2.0,3.0,47,0.00,,,0.00,0,Wunderground v.1.15,2013-06-22 01:55:00,
2013-06-22 05:05:00,77.0,55.2,29.88,NNE,15,3.0,3.0,47,0.00,,,0.00,0,Wunderground v.1.15,2013-06-22 02:05:00,
2013-06-22 05:15:00,76.8,55.6,29.88,NNE,15,1.0,1.0,48,0.00,,,0.00,0,Wunderground v.1.15,2013-06-22 02:15:00,
2013-06-22 05:25:00,76.6,55.4,29.88,NNE,15,1.0,1.0,48,0.00,,,0.00,0,Wunderground v.1.15,2013-06-22 02:25:00,
2013-06-22 05:35:00,76.6,55.4,29.89,NNE,15,1.0,1.0,48,0.00,,,0.00,0,Wunderground v.1.15,2013-06-22 02:35:00,
2013-06-22 05:46:00,76.5,55.9,29.88,NNE,15,1.0,2.0,49,0.00,,,0.00,0,Wunderground v.1.15,2013-06-22 02:46:00,
2013-06-22 05:55:00,76.5,55.9,29.88,NNE,15,1.0,1.0,49,0.00,,,0.00,0,Wunderground v.1.15,2013-06-22 02:55:00,
2013-06-22 06:05:00,76.5,55.9,29.88,NNE,15,2.0,3.0,49,0.00,,,0.00,5,Wunderground v.1.15,2013-06-22 03:05:00,
2013-06-22 06:15:00,76.6,56.0,29.88,NNE,15,2.0,4.0,49,0.00,,,0.00,11,Wunderground v.1.15,2013-06-22 03:15:00,
2013-06-22 06:25:00,76.6,56.6,29.88,NNE,15,2.0,2.0,50,0.00,,,0.00,16,Wunderground v.1.15,2013-06-22 03:25:00,
2013-06-22 06:35:00,76.8,56.2,29.88,NNE,15,2.0,2.0,49,0.00,,,0.00,32,Wunderground v.1.15,2013-06-22 03:35:00,
2013-06-22 06:46:00,77.1,56.5,29.88,NNE,15,1.0,4.0,49,0.00,,,0.00,53,Wunderground v.1.15,2013-06-22 03:46:00,
2013-06-22 06:55:00,77.5,56.8,29.88,NNE,15,1.0,2.0,49,0.00,,,0.00,76,Wunderground v.1.15,2013-06-22 03:55:00,
2013-06-22 07:05:00,77.9,56.6,29.89,NNE,15,1.0,1.0,48,0.00,,,0.00,105,Wunderground v.1.15,2013-06-22 04:05:00,
2013-06-22 07:16:00,78.4,57.1,29.89,NNE,15,1.0,1.0,48,0.00,,,0.00,135,Wunderground v.1.15,2013-06-22 04:16:00,
2013-06-22 07:25:00,78.8,56.9,29.89,NNE,15,1.0,1.0,47,0.00,,,0.00,160,Wunderground v.1.15,2013-06-22 04:25:00,
2013-06-22 07:35:00,79.0,56.5,29.89,NNE,15,2.0,2.0,46,0.00,,,0.00,188,Wunderground v.1.15,2013-06-22 04:35:00,
2013-06-22 07:46:00,79.3,55.5,29.89,NNE,15,2.0,3.0,44,0.00,,,0.00,218,Wunderground v.1.15,2013-06-22 04:46:00,
2013-06-22 07:55:00,79.9,56.7,29.89,NNE,15,1.0,1.0,45,0.00,,,0.00,246,Wunderground v.1.15,2013-06-22 04:55:00,
2013-06-22 08:05:00,80.4,55.2,29.89,NNE,15,1.0,1.0,42,0.00,,,0.00,276,Wunderground v.1.15,2013-06-22 05:05:00,
2013-06-22 08:15:00,81.2,55.9,29.89,NNE,15,0.0,3.0,42,0.00,,,0.00,308,Wunderground v.1.15,2013-06-22 05:15:00,
2013-06-22 08:25:00,81.9,55.9,29.89,NNE,15,1.0,1.0,41,0.00,,,0.00,334,Wunderground v.1.15,2013-06-22 05:25:00,
2013-06-22 08:35:00,82.1,54.7,29.89,NNE,15,2.0,2.0,39,0.00,,,0.00,366,Wunderground v.1.15,2013-06-22 05:35:00,
2013-06-22 08:46:00,82.5,54.3,29.89,NNE,15,2.0,3.0,38,0.00,,,0.00,396,Wunderground v.1.15,2013-06-22 05:46:00,
2013-06-22 08:55:00,83.5,54.5,29.90,NNE,15,1.0,3.0,37,0.00,,,0.00,424,Wunderground v.1.15,2013-06-22 05:55:00,
2013-06-22 09:05:00,83.5,55.2,29.89,NNE,15,2.0,2.0,38,0.00,,,0.00,454,Wunderground v.1.15,2013-06-22 06:05:00,
2013-06-22 09:16:00,83.4,54.4,29.90,NNE,24,4.0,4.0,37,0.00,,,0.00,485,Wunderground v.1.15,2013-06-22 06:16:00,
2013-06-22 09:25:00,83.3,53.6,29.90,ENE,70,7.0,11.0,36,0.00,,,0.00,512,Wunderground v.1.15,2013-06-22 06:25:00,
2013-06-22 09:35:00,83.5,53.7,29.89,NE,38,10.0,10.0,36,0.00,,,0.00,541,Wunderground v.1.15,2013-06-22 06:35:00,
2013-06-22 09:45:00,83.9,54.1,29.89,ENE,74,9.0,9.0,36,0.00,,,0.00,570,Wunderground v.1.15,2013-06-22 06:45:00,
2013-06-22 09:55:00,84.2,53.6,29.89,NNE,15,10.0,10.0,35,0.00,,,0.00,598,Wunderground v.1.15,2013-06-22 06:55:00,
2013-06-22 10:05:00,84.1,53.5,29.88,ENE,62,13.0,21.0,35,0.00,,,0.00,626,Wunderground v.1.15,2013-06-22 07:05:00,
2013-06-22 10:15:00,84.5,53.0,29.88,NE,48,12.0,12.0,34,0.00,,,0.00,650,Wunderground v.1.15,2013-06-22 07:15:00,
2013-06-22 10:25:00,85.2,53.7,29.89,NNE,16,9.0,11.0,34,0.00,,,0.00,671,Wunderground v.1.15,2013-06-22 07:25:00,
2013-06-22 10:35:00,85.6,53.2,29.88,NNW,343,10.0,15.0,33,0.00,,,0.00,698,Wunderground v.1.15,2013-06-22 07:35:00,
2013-06-22 10:46:00,85.9,53.5,29.89,NNE,26,11.0,11.0,33,0.00,,,0.00,724,Wunderground v.1.15,2013-06-22 07:46:00,
2013-06-22 10:55:00,86.4,52.2,29.88,NE,39,10.0,12.0,31,0.00,,,0.00,744,Wunderground v.1.15,2013-06-22 07:55:00,
2013-06-22 11:05:00,86.6,52.4,29.88,ENE,70,10.0,12.0,31,0.00,,,0.00,766,Wunderground v.1.15,2013-06-22 08:05:00,
2013-06-22 11:15:00,87.0,50.9,29.88,ENE,61,12.0,12.0,29,0.00,,,0.00,786,Wunderground v.1.15,2013-06-22 08:15:00,
2013-06-22 11:25:00,87.2,52.9,29.88,NNE,24,12.0,12.0,31,0.00,,,0.00,802,Wunderground v.1.15,2013-06-22 08:25:00,
2013-06-22 11:35:00,87.7,52.4,29.88,NE,48,9.0,19.0,30,0.00,,,0.00,821,Wunderground v.1.15,2013-06-22 08:35:00,
2013-06-22 11:46:00,87.7,52.4,29.88,North,9,11.0,12.0,30,0.00,,,0.00,838,Wunderground v.1.15,2013-06-22 08:46:00,
2013-06-22 11:55:00,88.1,52.8,29.88,NE,45,10.0,10.0,30,0.00,,,0.00,851,Wunderground v.1.15,2013-06-22 08:55:00,
2013-06-22 12:05:00,88.7,54.2,29.88,North,10,8.0,8.0,31,0.00,,,0.00,863,Wunderground v.1.15,2013-06-22 09:05:00,
2013-06-22 12:16:00,88.9,54.4,29.89,NNE,24,8.0,8.0,31,0.00,,,0.00,879,Wunderground v.1.15,2013-06-22 09:16:00,
2013-06-22 12:25:00,89.5,54.0,29.89,NE,44,6.0,6.0,30,0.00,,,0.00,889,Wunderground v.1.15,2013-06-22 09:25:00,
2013-06-22 12:35:00,89.4,53.0,29.90,North,360,5.0,11.0,29,0.00,,,0.00,896,Wunderground v.1.15,2013-06-22 09:35:00,
2013-06-22 12:46:00,88.7,53.3,29.89,NE,34,8.0,8.0,30,0.00,,,0.00,909,Wunderground v.1.15,2013-06-22 09:46:00,
2013-06-22 12:55:00,89.1,52.7,29.89,ENE,63,8.0,13.0,29,0.00,,,0.00,916,Wunderground v.1.15,2013-06-22 09:55:00,
2013-06-22 13:05:00,89.5,52.1,29.88,East,81,8.0,10.0,28,0.00,,,0.00,921,Wunderground v.1.15,2013-06-22 10:05:00,
2013-06-22 13:16:00,90.0,52.5,29.88,NE,55,9.0,14.0,28,0.00,,,0.00,926,Wunderground v.1.15,2013-06-22 10:16:00,
2013-06-22 13:25:00,89.8,51.4,29.88,NE,55,10.0,10.0,27,0.00,,,0.00,928,Wunderground v.1.15,2013-06-22 10:25:00,
2013-06-22 13:35:00,89.8,50.3,29.88,ESE,118,10.0,10.0,26,0.00,,,0.00,930,Wunderground v.1.15,2013-06-22 10:35:00,
2013-06-22 13:46:00,90.7,51.1,29.88,NE,34,7.0,8.0,26,0.00,,,0.00,925,Wunderground v.1.15,2013-06-22 10:46:00,
2013-06-22 13:55:00,91.4,52.7,29.87,ENE,58,6.0,6.0,27,0.00,,,0.00,923,Wunderground v.1.15,2013-06-22 10:55:00,
2013-06-22 14:05:00,91.6,49.7,29.87,NE,51,7.0,8.0,24,0.00,,,0.00,926,Wunderground v.1.15,2013-06-22 11:05:00,
2013-06-22 14:16:00,91.6,47.4,29.87,NNE,26,9.0,9.0,22,0.00,,,0.00,918,Wunderground v.1.15,2013-06-22 11:16:00,
2013-06-22 14:25:00,92.0,46.5,29.87,NE,49,7.0,7.0,21,0.00,,,0.00,921,Wunderground v.1.15,2013-06-22 11:25:00,
2013-06-22 14:35:00,92.0,46.5,29.87,NE,44,7.0,7.0,21,0.00,,,0.00,907,Wunderground v.1.15,2013-06-22 11:35:00,
2013-06-22 14:45:00,92.3,45.4,29.86,ENE,78,7.0,7.0,20,0.00,,,0.00,898,Wunderground v.1.15,2013-06-22 11:45:00,
2013-06-22 14:51:00,92.2,44.0,29.86,ENE,59,7.0,10.0,19,0.00,,,0.00,896,Wunderground v.1.15,2013-06-22 11:51:00,
2013-06-22 15:05:00,92.5,42.8,29.86,NE,51,8.0,8.0,18,0.00,,,0.00,875,Wunderground v.1.15,2013-06-22 12:05:00,
2013-06-22 15:15:00,92.4,39.7,29.85,NE,43,12.0,19.0,16,0.00,,,0.00,860,Wunderground v.1.15,2013-06-22 12:15:00,
2013-06-22 15:25:00,92.9,41.7,29.85,ENE,59,9.0,11.0,17,0.00,,,0.00,842,Wunderground v.1.15,2013-06-22 12:25:00,
2013-06-22 15:35:00,92.5,41.3,29.85,ENE,62,10.0,10.0,17,0.00,,,0.00,826,Wunderground v.1.15,2013-06-22 12:35:00,
2013-06-22 15:45:00,92.8,43.1,29.85,ENE,63,8.0,8.0,18,0.00,,,0.00,807,Wunderground v.1.15,2013-06-22 12:45:00,
2013-06-22 15:55:00,92.7,44.4,29.85,East,92,9.0,9.0,19,0.00,,,0.00,786,Wunderground v.1.15,2013-06-22 12:55:00,
2013-06-22 16:05:00,92.8,45.8,29.85,North,10,9.0,9.0,20,0.00,,,0.00,761,Wunderground v.1.15,2013-06-22 13:05:00,
2013-06-22 16:15:00,92.9,47.2,29.84,NNE,28,8.0,8.0,21,0.00,,,0.00,731,Wunderground v.1.15,2013-06-22 13:15:00,
2013-06-22 16:25:00,92.9,47.2,29.84,ENE,59,7.0,7.0,21,0.00,,,0.00,707,Wunderground v.1.15,2013-06-22 13:25:00,
2013-06-22 16:35:00,92.7,48.3,29.84,NE,45,9.0,9.0,22,0.00,,,0.00,664,Wunderground v.1.15,2013-06-22 13:35:00,
2013-06-22 16:46:00,92.8,49.6,29.84,ENE,78,8.0,8.0,23,0.00,,,0.00,647,Wunderground v.1.15,2013-06-22 13:46:00,
2013-06-22 16:55:00,93.5,50.1,29.83,East,83,6.0,6.0,23,0.00,,,0.00,626,Wunderground v.1.15,2013-06-22 13:55:00,
2013-06-22 17:05:00,93.6,50.2,29.83,NE,53,5.0,10.0,23,0.00,,,0.00,592,Wunderground v.1.15,2013-06-22 14:05:00,
2013-06-22 17:16:00,93.2,51.0,29.83,East,80,6.0,10.0,24,0.00,,,0.00,568,Wunderground v.1.15,2013-06-22 14:16:00,
2013-06-22 17:25:00,93.0,50.9,29.83,NE,45,7.0,13.0,24,0.00,,,0.00,543,Wunderground v.1.15,2013-06-22 14:25:00,
2013-06-22 17:35:00,92.7,50.6,29.83,NNE,30,8.0,13.0,24,0.00,,,0.00,527,Wunderground v.1.15,2013-06-22 14:35:00,
2013-06-22 17:46:00,92.8,51.8,29.83,East,82,8.0,8.0,25,0.00,,,0.00,496,Wunderground v.1.15,2013-06-22 14:46:00,
2013-06-22 17:55:00,92.8,51.8,29.83,NE,54,6.0,8.0,25,0.00,,,0.00,468,Wunderground v.1.15,2013-06-22 14:55:00,
2013-06-22 18:05:00,92.6,50.5,29.83,ENE,67,7.0,8.0,24,0.00,,,0.00,438,Wunderground v.1.15,2013-06-22 15:05:00,
2013-06-22 18:15:00,92.5,49.3,29.82,NNE,32,6.0,10.0,23,0.00,,,0.00,410,Wunderground v.1.15,2013-06-22 15:15:00,
2013-06-22 18:25:00,92.6,50.5,29.82,ENE,57,6.0,6.0,24,0.00,,,0.00,383,Wunderground v.1.15,2013-06-22 15:25:00,
2013-06-22 18:35:00,92.4,49.2,29.83,NNE,16,5.0,5.0,23,0.00,,,0.00,353,Wunderground v.1.15,2013-06-22 15:35:00,
2013-06-22 18:46:00,92.4,49.2,29.83,ENE,69,6.0,6.0,23,0.00,,,0.00,325,Wunderground v.1.15,2013-06-22 15:46:00,
2013-06-22 18:55:00,92.4,49.2,29.83,NE,53,5.0,5.0,23,0.00,,,0.00,295,Wunderground v.1.15,2013-06-22 15:55:00,
2013-06-22 19:05:00,91.9,48.8,29.83,ENE,59,5.0,5.0,23,0.00,,,0.00,265,Wunderground v.1.15,2013-06-22 16:05:00,
2013-06-22 19:15:00,91.6,48.6,29.83,ESE,115,5.0,12.0,23,0.00,,,0.00,237,Wunderground v.1.15,2013-06-22 16:15:00,
2013-06-22 19:25:00,91.9,48.8,29.82,ESE,119,4.0,4.0,23,0.00,,,0.00,207,Wunderground v.1.15,2013-06-22 16:25:00,
2013-06-22 19:35:00,91.5,48.5,29.82,NE,46,5.0,5.0,23,0.00,,,0.00,172,Wunderground v.1.15,2013-06-22 16:35:00,
2013-06-22 19:45:00,91.3,48.3,29.82,ENE,67,3.0,6.0,23,0.00,,,0.00,137,Wunderground v.1.15,2013-06-22 16:45:00,
2013-06-22 19:55:00,90.9,49.1,29.82,NNE,30,3.0,8.0,24,0.00,,,0.00,109,Wunderground v.1.15,2013-06-22 16:55:00,
2013-06-22 20:05:00,90.6,47.7,29.82,East,88,5.0,5.0,23,0.00,,,0.00,26,Wunderground v.1.15,2013-06-22 17:05:00,
2013-06-22 20:16:00,90.1,47.3,29.83,ENE,60,4.0,4.0,23,0.00,,,0.00,25,Wunderground v.1.15,2013-06-22 17:16:00,
2013-06-22 20:25:00,89.6,45.7,29.83,NE,52,4.0,4.0,22,0.00,,,0.00,32,Wunderground v.1.15,2013-06-22 17:25:00,
2013-06-22 20:35:00,89.3,45.5,29.83,East,80,5.0,5.0,22,0.00,,,0.00,16,Wunderground v.1.15,2013-06-22 17:35:00,
2013-06-22 20:46:00,88.9,45.1,29.83,ENE,76,4.0,6.0,22,0.00,,,0.00,5,Wunderground v.1.15,2013-06-22 17:46:00,
2013-06-22 20:55:00,88.4,45.9,29.83,NE,54,5.0,6.0,23,0.00,,,0.00,0,Wunderground v.1.15,2013-06-22 17:55:00,
2013-06-22 21:05:00,88.1,45.6,29.83,ENE,59,4.0,4.0,23,0.00,,,0.00,0,Wunderground v.1.15,2013-06-22 18:05:00,
2013-06-22 21:16:00,87.9,46.6,29.83,NE,53,3.0,3.0,24,0.00,,,0.00,0,Wunderground v.1.15,2013-06-22 18:16:00,
2013-06-22 21:25:00,87.7,46.4,29.83,ENE,57,3.0,5.0,24,0.00,,,0.00,0,Wunderground v.1.15,2013-06-22 18:25:00,
2013-06-22 21:35:00,87.4,47.3,29.83,ENE,57,2.0,2.0,25,0.00,,,0.00,0,Wunderground v.1.15,2013-06-22 18:35:00,
2013-06-22 21:46:00,87.2,48.1,29.83,NE,51,3.0,6.0,26,0.00,,,0.00,0,Wunderground v.1.15,2013-06-22 18:46:00,
2013-06-22 21:55:00,86.9,47.9,29.83,NE,51,3.0,3.0,26,0.00,,,0.00,0,Wunderground v.1.15,2013-06-22 18:55:00,
2013-06-22 22:05:00,86.6,48.6,29.84,NE,51,1.0,1.0,27,0.00,,,0.00,0,Wunderground v.1.15,2013-06-22 19:05:00,
2013-06-22 22:15:00,86.5,48.5,29.84,NE,51,1.0,1.0,27,0.00,,,0.00,0,Wunderground v.1.15,2013-06-22 19:15:00,
2013-06-22 22:25:00,86.4,49.4,29.84,NE,51,1.0,1.0,28,0.00,,,0.00,0,Wunderground v.1.15,2013-06-22 19:25:00,
2013-06-22 22:35:00,86.1,49.2,29.84,NE,51,0.0,0.0,28,0.00,,,0.00,0,Wunderground v.1.15,2013-06-22 19:35:00,
2013-06-22 22:45:00,85.9,49.0,29.85,NE,51,0.0,0.0,28,0.00,,,0.00,0,Wunderground v.1.15,2013-06-22 19:45:00,
2013-06-22 22:55:00,85.6,49.7,29.85,NE,51,0.0,0.0,29,0.00,,,0.00,0,Wunderground v.1.15,2013-06-22 19:55:00,
2013-06-22 23:05:00,85.5,50.5,29.85,NE,51,1.0,1.0,30,0.00,,,0.00,0,Wunderground v.1.15,2013-06-22 20:05:00,
2013-06-22 23:16:00,85.3,51.2,29.85,NE,51,0.0,0.0,31,0.00,,,0.00,0,Wunderground v.1.15,2013-06-22 20:16:00,
2013-06-22 23:25:00,85.2,51.1,29.85,NE,51,1.0,1.0,31,0.00,,,0.00,0,Wunderground v.1.15,2013-06-22 20:25:00,
2013-06-22 23:35:00,84.8,54.1,29.85,NE,51,0.0,0.0,35,0.00,,,0.00,0,Wunderground v.1.15,2013-06-22 20:35:00,
2013-06-22 23:46:00,84.3,52.1,29.85,NE,51,0.0,0.0,33,0.00,,,0.00,0,Wunderground v.1.15,2013-06-22 20:46:00,
2013-06-22 23:55:00,84.2,52.0,29.85,NE,51,0.0,0.0,33,0.00,,,0.00,0,Wunderground v.1.15,2013-06-22 20:55:00,